Regional Weather Roundup
Issued by NWS

Home | Current Version | Previous Version | Graphics & Text | Print | Product List | Glossary On
Versions: 1 2 3 4 5 6 7 8 9 10 11 12 13 14 15 16 17 18 19 20 21 22 23 24 25 26 27 28 29 30 31 32 33 34 35 36 37 38 39 40 41 42 43 44 45 46 47 48 49 50
000
ASUS45 KBOU 041107
RWRCO

WEATHER ROUNDUP FOR COLORADO
NATIONAL WEATHER SERVICE DENVER/BOULDER CO
400 AM MST SUN DEC 04 2016

NOTE: "FAIR" INDICATES FEW OR NO CLOUDS BELOW 12000 FEET WITH NO
SIGNIFICANT WEATHER AND/OR OBSTRUCTIONS TO VISIBILITY.

COZ001>005-013-030-031-041200-
...NORTHWEST COLORADO...

CITY           SKY/WX    TMP DP  RH WIND       PRES   REMARKS
CRAIG          FAIR       8   3  80 CALM      30.18F
HAYDEN         FAIR      16   9  73 CALM      30.15F
MEEKER         FAIR       4   0  83 CALM      30.19F
MOUNT WERNER   NOT AVBL
STEAMBOAT SPGS FAIR      12  10  91 CALM      30.15F
WALDEN           N/A     14   9  79 S10       30.06F WCI   1
$$

COZ006>008-011-041200-
...WEST CENTRAL VALLEYS...

CITY           SKY/WX    TMP DP  RH WIND       PRES   REMARKS
GRAND JUNCTION FAIR      20  15  81 E12       30.24S WCI   8
MONTROSE       FAIR      17  10  74 SE5       30.25F WCI  10
EAGLE          FAIR       6   2  83 CALM      30.24S
RIFLE          FAIR      13   9  84 SE3       30.25F
DELTA          NOT AVBL
NUCLA          FAIR      18  10  73 CALM      30.22F
$$

COZ017>023-064>068-041200-
...SOUTHWEST COLORADO...

CITY           SKY/WX    TMP DP  RH WIND       PRES   REMARKS
DURANGO        FAIR      16  12  84 CALM      30.13F
CORTEZ         FAIR      15   9  76 NE7       30.15S WCI   5
PAGOSA SPRINGS FAIR      12  11  93 CALM      30.13S
TELLURIDE      FAIR      14   6  69 E3        30.15F
WOLF CREEK PAS FAIR      21 -13  21 W5G20     30.14S WCI  15
$$

COZ009-010-012-014-032>034-037-058>063-041200-
...CENTRAL COLORADO...

CITY           SKY/WX    TMP DP  RH WIND       PRES   REMARKS
ASPEN          FAIR       6   0  76 SW6       30.15F WCI  -4
BUENA VISTA    FAIR       9   1  69 S3        30.05F
COPPER MTN     FAIR      10  -9  40 MISG      30.03F
BERTHOUD PASS  FAIR       0 -13  55 NW38G48   29.91F WCI -29
COTTONWOOD PAS FAIR      23 -11  21 NW7       30.00F WCI  15
GUNNISON       FAIR       3  -1  83 CALM      30.21F
KREMMLING      FAIR      14  10  85 CALM      30.16S
LEADVILLE      FAIR       8  -6  52 VRB6      30.05F WCI  -2
MONARCH PASS     N/A      5   1  85 W40G46    30.10F WCI -22
SALIDA         FAIR      22   4  45 NW10      30.15S WCI  11
SUNLIGHT       FAIR     N/A N/A N/A SW7       30.13F
WILKERSON PASS FAIR      14 -13  29 W9G18     30.01F WCI   2
$$

COZ069>075-041200-
...SAN LUIS VALLEY/SANGRE DE CRISTO MOUNTAINS...

CITY           SKY/WX    TMP DP  RH WIND       PRES   REMARKS
ALAMOSA        FAIR      -5  -9  83 W6        30.13S WCI -18
LA VETA PASS   FAIR       9   5  85 NE30      30.00F WCI -14
SAGUACHE       FAIR      21   5  49 N17       30.11F WCI   7
$$

COZ035-036-038>040-041200-
...NORTHERN COLORADO FRONT RANGE...

CITY           SKY/WX    TMP DP  RH WIND       PRES   REMARKS
DENVER INTL AP FAIR      18   6  59 S9        29.99F WCI   7
DMNS CITY PARK   N/A     22   8  54 SE8       30.00S WCI  12
AURORA         CLEAR     20   7  56 S10       29.99F WCI   9
FRONT RANGE AP FAIR      21  10  63 S8        30.00F WCI  12
ERIE MUNI ARPT FAIR      15   8  75 SW5       29.99F WCI   7
BOULDER MUN AP FAIR      30   5  34 CALM      29.99S
CENTENNIAL     FAIR      18   5  57 S12       29.99F WCI   5
BROOMFIELD     FAIR      30   5  34 W10       29.99F WCI  21
FORT COLLINS   FAIR      19  12  73 CALM      30.01S
LONGMONT       FAIR      17   9  72 N5        30.02S WCI  10
$$

COZ041-046-047-076>085-087-088-041200-
...PIKES PEAK/PALMER DIVIDE AND SOUTHERN FOOTHILLS...

CITY           SKY/WX    TMP DP  RH WIND       PRES   REMARKS
COLO. SPRINGS  FAIR      13   4  67 N9        30.04F WCI   1
A. F. ACADEMY  FAIR      11   3  68 N7        30.02F WCI   1
SCHRIEVER AFB  NOT AVBL
ELLICOTT       FAIR     N/A N/A N/A CALM        N/A
FALCON         FAIR      15   6  66 W6        30.03S WCI   7
FORT CARSON    FAIR      15   8  72 NW7       30.02F WCI   5
LIMON          FAIR      14   8  77 NW3       30.04S
MONUMENT HILL  FAIR      14   3  62 S9        30.01F WCI   2
TRINIDAD       FAIR      19  11  70 SW13      30.06F WCI   6
$$

COZ042>045-048>051-090-091-041200-
...NORTHEAST COLORADO...

CITY           SKY/WX    TMP DP  RH WIND       PRES   REMARKS
GREELEY ARPT   FAIR      12   8  84 CALM      30.03F
AKRON          FAIR      22  10  60 W12       30.00F WCI  10
BURLINGTON     FAIR      17  10  74 W8        30.03F WCI   7
WRAY           FAIR      21  14  73 W9        30.03S WCI  11
STERLING       FAIR      27  12  54 NW8       30.01F WCI  18
HOLYOKE        FAIR      27  16  63 W9        30.01F WCI  17
FORT MORGAN    FAIR      16  11  79 W8        30.02F WCI   5
$$

COZ086-089-092>099-041200-
...SOUTHEAST COLORADO...

CITY           SKY/WX    TMP DP  RH WIND       PRES   REMARKS
PUEBLO         FAIR      14   8  77 CALM      30.06F
LA JUNTA       FAIR      19  13  77 W6        30.08S WCI  11
LAMAR          MIX PCPN  18  14  84 W7        30.08R WCI   9
SPRINGFIELD      N/A     18  16  92 NW9       30.06F WCI   7
$$



USA.gov is the U.S. government's official web portal to all federal, state and local government web resources and services.